This is the latest recevied weather packets stored in our database for station/object KD2FKI. If no packets are shown the sender has not sent any weather packets the latest 10 day(s).
| Time | Temp. | Humidity | Pressure | Rain* | Wind** | Luminosity | Snow |
|---|---|---|---|---|---|---|---|
| 1788131720 | 26.11° C | 76% | - | 2.54 mm | - | - | - |
| 1788131136 | 28.33° C | 66% | - | 0 mm | - | - | - |
| 1788130534 | 28.33° C | 68% | - | 0 mm | - | - | - |
| 1788129933 | 28.89° C | 67% | - | 0 mm | - | - | - |
| 1788129330 | 29.44° C | 65% | - | 0 mm | - | - | - |
| 1788128727 | 30° C | 63% | - | 0 mm | - | - | - |
| 1788128125 | 30° C | 62% | - | 0 mm | - | - | - |
| 1788127523 | 30.56° C | 60% | - | 0 mm | - | - | - |
| 1788126920 | 31.67° C | 58% | - | 0 mm | - | - | - |
| 1788126337 | 31.67° C | 57% | - | 0 mm | - | - | - |
| 1788125736 | 31.67° C | 57% | - | 0 mm | - | - | - |
| 1788125132 | 31.67° C | 56% | - | 0 mm | - | - | - |
| 1788124530 | 31.67° C | 57% | - | 0 mm | - | - | - |
| 1788123927 | 32.22° C | 56% | - | 0 mm | - | - | - |
| 1788123325 | 32.22° C | 56% | - | 0 mm | - | - | - |
| 1788122724 | 32.22° C | 56% | - | 0 mm | - | - | - |
| 1788122123 | 32.22° C | 55% | - | 0 mm | - | - | - |
| 1788121521 | 32.22° C | 55% | - | 0 mm | - | - | - |
| 1788120938 | 33.33° C | 53% | - | 0 mm | - | - | - |
| 1788120335 | 33.33° C | 53% | - | 0 mm | - | - | - |
| 1788119734 | 33.89° C | 51% | - | 0 mm | - | - | - |
| 1788119128 | 34.44° C | 51% | - | 0 mm | - | - | - |
| 1788118525 | 33.89° C | 52% | - | 0 mm | - | - | - |
| 1788117923 | 34.44° C | 51% | - | 0 mm | - | - | - |
| 1788117321 | 35° C | 49% | - | 0 mm | - | - | - |
* Rain latest hour (hover to see other rain measurements)
** Current wind speed in m/s (hover to see current wind gust speed)